Location: Ambatotampy
(18.8181°S, 47.6186°E)
Time: 23:13:29
(UTC+00:00)

Cosmos 1763 Rocket - Pass Details

Date: 21 January 2021
Orbit: 732 x 781 km, 74.0° (Epoch: 24 February)

Event Time Altitude Azimuth Distance (km) Brightness Sun altitude
Rises 00:58:07 0° 205° (SSW) 3,173 6.8 -20.1°
Reaches altitude 10° 01:00:35 10° 212° (SSW) 2,245 5.9 -19.6°
Maximum altitude 01:05:19 40° 281° (W) 1,072 3.8 -18.7°
Enters shadow 01:06:51 32° 321° (NW) 1,250 4.1 -18.3°
